Location: Unspecified
(0.0000°N, 0.0000°E)
Time: 01:07:50
(UTC+00:00)

Explorer 25 - Pass Details

Date: 11 March 2026
Orbit: 523 x 2264 km, 81.3° (Epoch: 14 April)

Event Time Altitude Azimuth Distance (km) Brightness Sun altitude
Rises 18:36:04 0° 183° (S) 5,826 12.6 -6.5°
Reaches altitude 10° 18:39:46 10° 182° (S) 4,760 12.1 -7.4°
Maximum altitude 18:52:19 86° 94° (E) 1,887 9.9 -10.6°
Drops below altitude 10° 19:01:35 10° 6° (N) 3,609 11.4 -12.9°
Sets 19:04:03 0° 6° (N) 4,382 11.8 -13.5°
